Tracking 30923 objects as of 1-Jul-2025
HD Live streaming from Space Station
objects crossing your sky now

SL-16 DEB

Track SL-16 DEB now!
10-day predictions


NORAD ID: 25862
Int'l Code: 1999-039C
Perigee: 641.2 km
Apogee: 867.3 km
Inclination: 97.7 °
Period: 99.8 minutes
Semi major axis: 7125 km
RCS: 0.0838 m2 (small)
Launch date: July 17, 1999
Source: Commonwealth of Independent States (former USSR) (CIS)
Launch site: TYURATAM MISSILE AND SPACE COMPLEX (TTMTR)

Note: This is SATELLITE DEBRIS
Your satellite tracking list
Your tracking list is empty




NASA's NSSDC Master Catalog

Two Line Element Set (TLE):
1 25862U 99039C   25181.59481110  .00000525  00000-0  14403-3 0  9996
2 25862  97.7033 188.3377 0158690 129.1334 232.4087 14.43459450362065
Source of the keplerian elements: AFSPC